RAM410 GMMX-GMMN

Flight info

Callsign RAM410
Flight time N/A
Altitude 16000
Route MABAP R722 FOBAC
Aircraft B738/M-SDE2E3FGHIRWXY/LB1

Departure

Time 2026-05-07 20:52
Airport Marrakesh Menara Airport (GMMX)

Arrival

Time N/A
Airport Mohammed V International Airport (GMMN)
Time Latitude Longitude Altitude Speed Heading
2026-05-07 20:43 31.60315 -8.02591 1547 ft 0 kts 185°
2026-05-07 20:47 31.60324 -8.02590 1547 ft 2 kts 185°
2026-05-07 20:47 31.60340 -8.02588 1538 ft 2 kts 185°
2026-05-07 20:47 31.60357 -8.02587 1537 ft 2 kts 185°
2026-05-07 20:47 31.60373 -8.02584 1539 ft 2 kts 211°
2026-05-07 20:48 31.60382 -8.02572 1536 ft 1 kts 269°
2026-05-07 20:48 31.60382 -8.02566 1536 ft 1 kts 276°
2026-05-07 20:50 31.60382 -8.02567 1536 ft 1 kts 276°
2026-05-07 20:50 31.60414 -8.02622 1542 ft 11 kts 310°
2026-05-07 20:50 31.60496 -8.03139 1541 ft 0 kts 283°
2026-05-07 20:50 31.60665 -8.05243 1515 ft 0 kts 343°
2026-05-07 20:51 31.60687 -8.05249 1514 ft 8 kts 349°
2026-05-07 20:51 31.60747 -8.05251 1514 ft 9 kts
2026-05-07 20:51 31.60801 -8.05223 1514 ft 9 kts 40°
2026-05-07 20:51 31.60822 -8.05129 1515 ft 26 kts 94°
2026-05-07 20:52 31.60776 -8.04606 1521 ft 101 kts 96°
2026-05-07 20:52 31.60680 -8.03522 1535 ft 164 kts 96°
2026-05-07 20:52 31.60543 -8.02125 2100 ft 175 kts 99°
2026-05-07 20:52 31.60198 -8.00739 2914 ft 180 kts 118°
2026-05-07 20:53 31.59619 -7.99429 3702 ft 188 kts 116°
2026-05-07 20:53 31.59042 -7.97928 3979 ft 214 kts 111°
2026-05-07 20:53 31.58850 -7.96126 4144 ft 235 kts 77°
2026-05-07 20:53 31.59694 -7.94463 4484 ft 245 kts 39°
2026-05-07 20:54 31.61240 -7.93717 4950 ft 249 kts
2026-05-07 20:54 31.62393 -7.93906 5352 ft 250 kts 340°
2026-05-07 20:54 31.64602 -7.95017 5774 ft 271 kts 334°
2026-05-07 20:54 31.65765 -7.95661 6212 ft 275 kts 334°
2026-05-07 20:55 31.67493 -7.96613 7081 ft 275 kts 334°
2026-05-07 20:55 31.69240 -7.97556 7829 ft 278 kts 335°
2026-05-07 20:55 31.71007 -7.98492 8541 ft 282 kts 335°
2026-05-07 20:55 31.72794 -7.99424 9269 ft 285 kts 336°
2026-05-07 20:56 31.74618 -8.00367 9980 ft 288 kts 336°
2026-05-07 20:56 31.76484 -8.01326 10456 ft 301 kts 336°
2026-05-07 20:56 31.78479 -8.02348 10626 ft 324 kts 336°
2026-05-07 20:56 31.80611 -8.03438 10806 ft 345 kts 336°
2026-05-07 20:57 31.82880 -8.04596 10980 ft 364 kts 336°
2026-05-07 20:57 31.85247 -8.05804 11401 ft 374 kts 336°